Regional Weather Roundup
Issued by NWS

Home | Current Version | Previous Version | Graphics & Text | Print | Product List | Glossary On
Versions: 1 2 3 4 5 6 7 8 9 10 11 12 13 14 15 16 17 18 19 20 21 22 23 24 25 26 27 28 29 30 31 32 33 34 35 36 37 38 39 40 41 42 43 44 45 46 47 48 49 50
000
ASUS43 KMKX 211421
RWRWI

WISCONSIN REGIONAL WEATHER ROUNDUP
NATIONAL WEATHER SERVICE MILWAUKEE/SULLIVAN WI
900 AM CDT FRI JUL 21 2017

NOTE: "FAIR" INDICATES FEW OR NO CLOUDS BELOW 12,000 FEET WITH NO
SIGNIFICANT WEATHER AND/OR OBSTRUCTIONS TO VISIBILITY.

WIZ001-002-006>008-014>016-023>028-211500-
NORTHWEST WISCONSIN

CITY           SKY/WX    TMP DP  RH WIND       PRES   REMARKS
SUPERIOR ARPT  NOT AVBL
ASHLAND        CLOUDY    70  66  87 CALM      29.98R
HAYWARD        PTSUNNY   74  67  78 S7        29.98R
SIREN          PTSUNNY   73  67  81 SE3       29.96S
CUMBERLAND     MOSUNNY   72  68  88 SE5       29.98F
RICE LAKE      MOSUNNY   73  68  84 SE3       30.00S
CHETEK         MOSUNNY   72  69  91 CALM      29.99R
LADYSMITH      SUNNY     74  68  83 CALM      30.00F
EAU CLAIRE     CLOUDY    75  68  78 SE3       29.95S
MENOMONIE      PTSUNNY   70  70  99 E3        29.96S
NEW RICHMOND   CLOUDY    72  70  95 E3        29.97R
OSCEOLA        CLOUDY    73  73 100 SE3       29.98S
$$

WIZ003>005-009-010-017-018-211500-
NORTH CENTRAL WISCONSIN

CITY           SKY/WX    TMP DP  RH WIND       PRES   REMARKS
MANITOWISH WTR CLOUDY    72  68  87 S5        30.01R
ARBOR VITAE    MOSUNNY   72  65  78 S6        30.01R
WOODRUFF       MOSUNNY   72  65  78 S6        30.01R
RHINELANDER    SUNNY     73  66  78 SW8       30.02R
EAGLE RIVER    SUNNY     71  63  75 SW3       30.01R
LAND O LAKES   CLOUDY    73  64  75 CALM      30.03R
PHILLIPS       PTSUNNY   74  67  80 CALM      30.00S
TOMAHAWK         N/A     73  65  78 CALM      30.02S HAZE
MEDFORD        SUNNY     73  66  78 SE6       30.00S
MERRILL        SUNNY     74  67  80 SE3       30.02R
$$

WIZ029-030-035-036-043>047-211500-
CENTRAL WISCONSIN

CITY           SKY/WX    TMP DP  RH WIND       PRES   REMARKS
WAUSAU         SUNNY     74  66  76 S6        29.99R
MOSINEE        MOSUNNY   72  72 100 SE5       30.01R
MARSHFIELD     MOSUNNY   76  66  71 SE7       29.99R
STEVENS POINT  SUNNY     75  65  70 SE6       29.99F
WAUPACA        MOSUNNY   78  68  73 CALM      29.98F
WAUTOMA        PTSUNNY   76  69  79 NE5         N/A
WISC RAPIDS    SUNNY     78  66  66 SE8       30.00R HX  80
CAMP DOUGLAS   PTSUNNY   70  70 100 E5        29.98S
$$

WIZ011>013-019>022-031-037>040-048>050-211500-
NORTHEAST WISCONSIN

CITY           SKY/WX    TMP DP  RH WIND       PRES   REMARKS
ANTIGO         SUNNY     73  65  75 SW6       30.03R
SHAWANO        SUNNY     79  67  67 CALM      29.98F HX  81
OCONTO         SUNNY     76  67  75 SW5       29.97R
STURGEON BAY     N/A     78  68  71 S7        29.98R HX  80
GREEN BAY      CLOUDY    76  70  82 S3        29.98R
MANITOWOC      PTSUNNY   78  67  68 CALM      29.99R HX  80
APPLETON       PTSUNNY   75  70  83 CALM      29.98R
CLINTONVILLE   SUNNY     73  64  73 CALM      30.00R
OSHKOSH        CLOUDY    76  70  82 CALM      29.97S
$$

WIZ032>034-041-042-053>061-211500-
SOUTHWEST WISCONSIN

CITY           SKY/WX    TMP DP  RH WIND       PRES   REMARKS
LA CROSSE      PTSUNNY   74  69  85 CALM      29.97R
SPARTA         CLOUDY    70  68  93 CALM      29.98R
VIROQUA        PTSUNNY   70  69  97 SE7       29.98R
BOSCOBEL       CLOUDY    71  70  96 NE5       29.96F
PRAIRIE DU CHI LGT RAIN  71  68  93 CALM      29.98R
PLATTEVILLE    CLOUDY    72  72 100 SE5       30.00R
$$

WIZ056-057-062-063-064-067-068-211500-
SOUTH CENTRAL WISCONSIN

CITY           SKY/WX    TMP DP  RH WIND       PRES   REMARKS
REEDSBURG      CLOUDY    73  73  98 CALM      29.98R
BARABOO/DELLS  CLOUDY    76  68  78 CALM      29.99R
LONE ROCK      CLOUDY    72  69  90 E3        29.98R
MINERAL POINT  CLOUDY    73  73 100 SE3       30.00R
MADISON        CLOUDY    75  68  78 S5        29.98R
MIDDLETON      PTSUNNY   76  74  93 S3        29.99R
WATERTOWN      MOSUNNY   75  72  92 E7        29.96F
MONROE         CLOUDY    75  72  88 S6        30.00R
JANESVILLE     PTSUNNY   79  75  89 SW6       29.97R HX  82
$$

WIZ051-052-058>065-066-070>072-211500-
SOUTHEAST WISCONSIN

CITY           SKY/WX    TMP DP  RH WIND       PRES   REMARKS
MILWAUKEE      PTSUNNY   79  70  74 E5        29.97F HX  82
WAUKESHA       SUNNY     75  70  83 E6        29.99F
MILWAUKEE/TIMM SUNNY     77  64  65 CALM      29.98F
RACINE         MOSUNNY   78  71  79 E7        29.98F HX  80
KENOSHA        CLOUDY    78  72  81 E6        29.97F HX  80
FOND DU LAC    CLOUDY    78  67  68 E3        29.97F HX  80
SHEBOYGAN      CLOUDY    77  71  82 CALM      29.98S
WEST BEND      PTSUNNY   77  70  78 E6        29.98F
JUNEAU         MOSUNNY   76  70  81 E3        29.99R
$$

LSZ147-162-211500-
LAKE SUPERIOR

STATION/POSITION TIME  TEMP    WIND        PRES    WAVE
                       AIR SEA DIR/SP/G            HT/PER
                 (UTC) (F)     (DEG/KT/KT) (MB)    (FT/S)
W MID LAKE BUOY  1350   54 47   60/  4/  6 1014.1R   0
DEVILS ISLAND    1400   65      70/  6/  7 1014.9R
SAXON HARBOR     1340   67     180/  3/  5 1014.2R
$$

LMZ867-665-643>646-211500-
LAKE MICHIGAN

STATION/POSITION TIME  TEMP    WIND        PRES    WAVE
                       AIR SEA DIR/SP/G            HT/PER
                 (UTC) (F)     (DEG/KT/KT) (MB)    (FT/S)
CHAMBERS ISLAND  1340   74     220/  3/  6 1014.2S
S GREEN BAY BUOY 1400   72 73  230/  6/  6 1014.6S
N MID LAKE BUOY  1350   66 65  200/ 10/ 10 1015.0S   1/ 4
NORTHPORT PIER   1340   72     350/  4/  5 1014.2F
KEWAUNEE LAKESHO 1354   71     170/  1/  1 1014.3S
SHEBOYGAN LAKESH 1400   71      40/  1/  2 1014.5S
PORT WASHINGTON  1330   73      80/  2/  4 1015.9R
ATWATER BUOY     1309   69 67  160/  6/  6 1015.4F
MILWAUKEE LAKESH 1400   73     150/  1/  1   N/A
S MID LAKE BUOY  1350   71 70   80/  6/  6 1014.9F   0
KENOSHA   LAKESH 1400   72        CALM     1014.9
$$

TC  - TEMPERATURE IN CELSIUS
VSB - VISIBILITY IN STATUTE MILES
WCI - WIND CHILL INDEX
HX  - HEAT INDEX





USA.gov is the U.S. government's official web portal to all federal, state and local government web resources and services.